GEFSSGP_con_cape1000_264.txt.gz
Probability
6 16 29 52 42 16 0 3 3 0 0 3 3 3 6 6 3 3 10 10 23 35 42 74 84 81 74 81 77 81 81 81 81 84 87 87 74 71 71 81 77 74 65 58 58 58 58 61 52
10 26 29 35 16 3 0 3 6 3 0 3 0 0 0 0 6 3 13 19 26 29 48 61 84 77 74 74 77 74 77 77 87 90 84 71 77 74 65 68 71 71 65 61 61 52 58 55 52
26 32 23 13 6 0 0 3 0 0 0 0 0 0 0 0 6 3 19 29 26 35 48 71 84 81 74 74 81 77 74 81 84 84 77 71 74 74 68 68 68 55 58 61 58 55 52 52 48
35 29 13 10 0 0 3 6 3 0 0 0 0 0 3 13 10 10 23 32 32 29 39 68 84 84 84 81 87 84 84 84 84 81 84 81 77 74 71 68 55 55 45 42 52 55 45 52 42
19 16 10 0 0 0 3 3 3 0 0 0 0 3 3 16 13 16 26 19 16 23 23 52 97 94 87 84 84 84 87 84 84 87 90 81 77 77 65 55 55 52 45 45 48 55 45 42 42
10 3 0 0 0 0 3 6 3 3 0 0 3 0 10 19 16 13 16 23 19 29 35 68 90 94 87 87 87 90 90 81 84 81 84 87 77 68 68 58 55 45 45 48 48 48 42 42 39
3 0 0 0 0 0 0 3 3 6 3 0 0 0 6 19 23 16 26 19 19 32 39 45 65 77 87 90 84 84 84 81 81 74 74 74 74 77 74 65 52 48 39 39 35 39 32 26 42
0 0 0 0 0 0 0 3 3 6 10 6 6 6 16 16 23 23 26 32 29 39 39 39 45 58 45 55 77 81 77 74 77 74 68 74 74 68 74 68 65 48 32 29 35 35 45 45 45
0 0 0 0 0 0 0 0 3 6 6 6 10 13 13 19 19 26 29 32 35 29 48 48 48 48 32 32 52 77 74 77 74 77 68 71 71 48 71 65 65 58 52 55 55 52 48 52 52
0 0 0 0 0 0 0 3 3 3 6 10 10 16 10 13 19 19 23 23 35 35 42 58 58 55 32 29 74 77 61 77 87 84 74 87 90 84 52 61 74 52 55 58 58 61 48 42 32
0 0 0 0 0 0 0 0 0 10 10 16 13 13 6 13 26 23 23 23 32 39 42 61 58 71 61 68 65 77 81 84 81 77 77 87 77 74 65 68 61 71 52 48 48 55 42 39 39
0 0 0 0 0 0 0 0 0 10 6 13 16 10 10 10 23 19 19 29 35 45 48 55 65 77 90 81 74 74 68 77 81 81 71 81 77 74 87 77 87 84 81 77 55 52 48 48 42
0 0 0 0 0 0 0 3 6 6 3 6 13 13 13 13 16 29 32 39 39 48 58 68 77 90 90 90 84 71 74 74 84 81 77 68 77 77 84 90 87 84 84 74 71 65 58 58 52
0 0 0 0 0 0 0 3 6 3 3 6 13 16 19 16 13 19 23 32 48 55 61 68 71 87 90 90 87 81 77 81 81 74 68 71 74 87 84 90 90 84 87 81 68 65 74 58 61
0 0 0 0 0 0 0 0 0 3 6 6 10 16 16 16 23 29 35 42 39 52 65 65 68 84 87 87 77 81 81 74 84 77 81 74 81 84 84 87 87 84 81 71 74 65 68 61 65
0 0 0 0 0 0 0 0 3 3 3 10 6 10 16 23 16 29 35 42 42 58 71 68 48 71 84 81 77 71 74 77 84 77 77 77 81 81 84 81 81 87 84 77 74 68 68 68 71
0 0 0 0 0 0 0 0 0 3 10 10 10 16 19 23 32 32 35 35 48 61 74 74 77 71 68 74 77 74 81 81 84 77 74 77 74 71 74 77 81 84 84 81 65 65 68 68 68
0 0 0 0 0 0 0 0 3 3 6 16 13 23 23 29 32 42 32 32 48 65 77 77 77 81 74 74 84 84 84 81 77 81 77 71 71 71 77 77 81 77 71 74 71 68 71 71 61
0 0 0 0 0 0 0 3 3 6 6 19 19 29 29 35 23 35 32 32 39 61 77 77 77 74 77 71 77 77 81 74 74 74 74 71 71 71 74 71 77 71 68 71 61 65 61 65 65
0 0 0 0 0 0 0 3 3 6 6 13 19 26 32 35 42 39 32 35 45 65 71 74 77 74 71 77 81 81 77 71 74 71 71 71 61 65 55 68 71 68 71 65 68 74 65 45 55
0 0 0 0 0 3 3 0 3 3 6 13 13 23 29 32 39 45 45 42 42 58 65 65 71 77 77 77 77 74 81 77 77 77 77 68 61 71 65 68 61 65 65 65 68 68 58 48 52
0 0 0 0 3 0 3 6 10 10 3 6 10 16 23 26 39 48 48 52 45 61 61 74 74 74 77 77 77 81 77 74 74 77 71 68 68 65 61 58 58 58 58 65 61 61 61 61 55
0 0 0 0 3 0 3 6 10 10 16 19 13 10 19 23 19 48 48 65 55 55 65 71 77 84 84 81 81 84 81 81 71 71 71 68 65 61 61 55 55 61 55 58 65 65 65 65 58
0 0 0 0 0 3 3 3 6 3 10 13 19 16 19 29 26 32 48 61 55 58 58 68 77 84 84 84 84 84 77 77 74 71 71 68 68 61 65 55 55 55 55 61 61 61 61 65 61
0 0 0 0 3 3 0 0 3 3 6 6 10 19 29 23 23 29 45 58 68 68 71 71 77 84 81 77 77 81 81 81 77 74 71 68 61 65 65 52 61 58 58 58 58 61 61 55 61
0 0 0 0 0 0 0 0 3 3 3 6 10 13 23 29 29 32 35 52 65 65 77 74 77 84 81 77 81 81 81 74 74 77 68 65 61 61 65 61 61 61 58 52 65 61 65 61 58
0 0 0 0 0 0 0 6 3 3 3 6 10 13 16 35 35 32 35 48 61 65 74 77 81 81 77 77 81 77 77 77 77 77 74 71 71 68 61 61 61 61 55 58 61 61 61 65 58
0 0 0 0 13 0 0 3 6 10 6 10 10 16 19 26 32 35 42 45 52 65 74 74 77 77 74 77 77 74 77 77 77 74 71 71 68 68 65 65 61 58 55 58 55 58 48 48 45
0 0 0 0 0 0 0 3 10 19 16 16 16 19 32 26 26 42 48 48 48 58 65 68 74 77 74 74 74 74 74 77 77 71 71 68 68 68 65 65 61 58 55 52 52 45 39 45 42
0 0 0 0 16 3 0 3 6 13 19 19 23 32 32 29 29 35 45 55 58 55 61 61 77 74 77 71 71 71 71 71 71 68 65 65 65 65 58 58 55 55 48 52 52 45 42 42 39

GEFSSGP_con_cape1000_270.txt.gz
Probability
26 6 6 13 6 3 0 0 0 0 0 0 0 3 0 0 0 3 3 6 16 42 68 77 90 87 87 90 90 84 90 90 81 84 84 77 77 81 77 81 77 74 71 68 55 58 61 61 58
6 6 10 3 3 0 0 0 0 0 0 0 0 0 3 3 6 6 6 6 19 39 48 68 84 84 87 87 87 87 84 90 84 87 77 77 77 81 84 77 81 74 68 68 68 58 48 58 58
3 13 16 0 0 0 0 3 0 0 0 0 0 0 0 3 6 0 3 13 13 19 39 81 87 84 87 87 84 84 77 84 87 81 81 81 81 81 77 77 77 77 74 71 55 52 52 55 48
3 6 3 0 0 0 0 0 0 0 0 0 0 0 6 3 3 0 10 13 19 23 52 77 87 87 90 87 84 84 84 87 84 84 84 77 77 81 77 74 74 74 71 71 55 45 45 52 55
3 6 3 3 0 0 0 0 0 0 0 0 0 3 3 6 6 13 3 6 19 26 52 74 87 90 87 87 87 87 84 90 90 87 87 84 87 84 84 81 74 71 77 65 58 52 52 55 55
3 3 3 0 0 0 0 0 0 0 0 0 0 3 3 3 6 3 6 6 13 23 45 71 90 87 87 87 81 84 84 87 90 90 90 90 84 87 87 87 74 71 65 61 55 55 55 48 48
3 0 0 0 0 0 0 0 0 0 0 0 0 0 0 0 3 6 10 3 6 23 42 52 68 71 81 84 84 84 87 84 84 81 81 84 87 87 84 84 81 71 55 48 42 48 48 61 52
3 0 0 0 0 0 0 0 0 0 3 0 0 0 0 3 6 10 10 3 6 13 29 39 48 55 65 68 84 87 90 94 90 87 84 81 81 87 77 84 71 65 52 48 48 48 48 55 48
0 0 0 0 0 0 0 0 0 3 3 0 0 0 0 10 6 13 3 3 3 13 23 26 35 32 39 48 71 77 81 90 84 84 94 65 39 32 42 48 68 52 48 48 58 58 58 48 55
0 0 0 0 0 0 0 0 0 3 3 6 6 3 6 6 3 6 10 3 3 6 19 19 19 16 13 32 42 42 48 48 39 39 42 29 23 26 32 68 68 58 65 58 55 52 52 39 23
0 0 0 0 0 0 3 3 3 3 3 3 3 0 0 6 3 0 6 6 6 6 10 10 6 10 16 16 16 26 26 19 10 16 13 16 10 13 29 26 26 42 35 32 39 35 32 29 16
0 0 0 0 0 0 0 3 3 3 3 3 0 0 0 0 0 0 3 3 3 13 13 16 10 16 23 26 23 23 19 16 16 10 13 13 6 6 13 19 13 13 13 13 10 13 6 10 3
0 0 0 0 0 0 3 3 6 3 3 3 3 0 3 0 0 0 3 6 10 10 16 16 23 26 23 19 23 23 19 23 16 19 10 10 13 13 13 10 6 10 6 6 6 6 3 3 3
0 0 0 0 0 3 3 3 3 3 0 0 3 3 0 0 0 3 6 10 16 13 16 10 23 26 23 26 26 29 26 23 19 13 13 19 16 13 16 19 10 13 6 3 3 6 3 3 3
0 0 0 0 0 3 3 3 3 0 0 0 0 0 3 3 3 6 6 0 3 13 13 16 23 23 26 29 32 32 26 29 23 19 23 26 23 19 26 16 16 16 10 6 6 6 3 3 3
0 0 0 0 0 0 0 3 3 0 3 3 3 0 0 3 0 3 6 3 6 13 10 19 35 29 26 32 35 32 29 29 26 19 26 26 23 19 19 19 16 13 10 10 6 3 3 3 3
0 0 0 0 0 0 0 0 3 0 3 3 3 0 0 0 6 16 6 6 10 10 13 16 29 29 32 35 35 32 32 29 29 26 23 26 29 32 26 16 10 16 6 6 6 3 3 3 3
0 0 0 0 0 0 0 0 0 3 6 3 3 3 3 6 10 13 10 13 13 10 16 16 23 29 32 32 29 29 26 29 29 26 23 26 32 29 29 23 13 13 6 6 6 6 3 3 3
0 0 0 0 0 0 0 0 0 0 3 3 0 3 0 6 10 13 16 16 16 13 16 19 26 29 29 29 32 32 26 23 29 29 26 26 23 26 26 26 13 10 10 10 10 6 3 3 3
0 0 0 0 0 0 0 0 0 0 0 0 0 0 10 6 13 16 16 16 23 23 23 26 26 35 35 26 29 29 29 32 29 26 29 26 23 23 29 29 13 16 10 6 6 3 3 3 3
0 0 0 0 0 0 0 0 0 0 0 0 3 0 13 13 10 13 16 16 23 26 26 32 26 35 32 35 42 42 42 42 39 32 32 29 26 32 29 26 26 16 13 10 6 3 6 3 3
0 0 0 0 0 0 0 0 0 0 0 0 6 10 13 16 10 13 16 19 23 26 29 29 32 39 39 42 42 42 45 45 42 32 32 29 26 29 32 23 29 23 16 10 3 10 10 3 3
0 0 0 0 0 0 0 0 0 0 0 0 3 6 13 19 13 13 16 23 26 29 32 35 35 45 42 48 45 45 42 42 45 42 35 32 35 32 32 39 32 29 26 19 26 19 13 3 3
0 0 0 0 0 0 0 0 0 0 0 0 3 10 16 16 10 16 19 23 26 32 32 35 39 48 48 48 45 42 42 45 42 42 42 35 32 35 35 39 32 32 26 29 29 19 16 10 3
0 0 0 0 0 0 0 0 0 0 0 0 0 13 16 16 13 19 23 29 32 32 29 39 45 48 48 55 52 48 48 45 45 42 42 39 39 39 29 32 29 26 29 29 23 23 13 10 10
0 0 0 0 0 0 0 0 0 0 0 0 0 6 13 10 10 16 26 35 35 26 32 48 52 58 61 61 58 58 52 48 48 48 48 48 39 39 39 29 26 23 29 29 26 26 26 16 10
0 0 0 0 0 0 0 0 0 0 3 3 6 6 16 16 16 16 29 35 35 39 39 42 45 55 65 65 58 55 61 58 52 52 52 52 48 42 35 32 26 26 26 23 23 26 23 16 16
0 0 0 0 0 0 0 0 0 0 3 6 6 13 19 16 16 16 26 32 39 32 32 42 48 48 61 61 58 61 58 55 55 55 52 52 48 42 35 32 26 29 32 26 19 16 19 19 16
0 0 0 0 0 0 0 0 0 0 0 3 6 16 19 13 16 26 39 35 42 39 45 45 52 55 58 61 61 58 55 55 45 45 45 52 48 42 35 32 26 26 26 29 23 16 13 13 16
0 0 0 0 0 0 0 0 3 3 3 10 16 16 23 19 23 29 32 42 39 42 42 45 48 55 58 58 58 58 48 45 45 45 45 45 42 39 32 29 29 32 29 29 16 16 16 13 16

GEFSSGP_con_cape1000_276.txt.gz
Probability
29 23 6 10 0 0 0 0 0 0 0 0 0 0 0 0 0 0 0 3 6 26 45 68 84 90 87 87 81 74 81 74 77 74 77 81 77 77 71 71 61 65 61 65 61 61 61 61 65
19 10 3 0 0 0 0 0 0 0 0 0 0 0 3 6 3 3 3 10 16 39 42 71 81 81 87 87 81 81 77 77 74 74 77 81 77 77 77 77 71 65 61 58 58 52 52 55 55
16 13 0 0 0 0 0 0 0 0 0 0 0 3 3 6 3 3 6 10 23 35 45 61 84 81 84 84 87 84 81 84 74 77 81 77 74 74 74 77 71 61 55 55 45 35 35 42 42
13 3 0 0 0 0 0 0 0 0 0 0 0 3 3 3 6 0 10 23 23 26 48 61 84 81 87 87 87 84 81 81 77 77 81 81 81 77 74 74 71 65 58 48 42 35 32 45 52
0 0 0 0 0 0 0 0 0 0 0 0 0 0 0 0 0 13 16 16 19 26 45 58 77 81 84 87 84 87 81 81 77 77 81 81 77 77 77 71 71 65 61 52 52 45 48 48 48
0 0 0 0 0 0 0 0 0 0 0 0 0 0 0 0 6 13 10 10 16 23 42 55 71 74 77 84 81 84 84 81 81 77 77 77 81 81 81 71 65 61 61 58 52 45 42 45 52
0 0 0 0 0 0 0 0 0 0 0 0 0 0 0 0 3 6 6 10 16 23 29 45 45 55 74 77 77 84 81 77 81 84 77 77 77 77 74 65 58 58 61 58 45 45 42 48 55
0 0 0 0 0 0 0 0 0 0 0 0 0 0 0 0 6 6 3 3 10 13 23 23 29 32 39 52 77 77 90 87 84 81 77 81 77 74 81 65 68 61 52 42 42 48 48 48 48
0 0 0 0 0 0 0 0 0 3 0 0 3 0 0 0 6 3 3 3 6 13 13 13 19 23 29 39 55 52 61 68 61 55 74 55 29 26 45 52 55 52 48 39 48 52 48 39 42
0 0 0 0 0 0 0 0 3 3 0 0 0 0 0 3 6 3 3 3 3 3 6 13 10 10 19 29 23 29 39 35 32 29 26 19 13 19 35 55 58 52 42 45 48 52 42 32 23
0 0 0 0 0 0 0 0 3 0 0 0 0 0 0 3 3 0 3 3 0 3 6 6 10 13 13 10 13 13 19 16 13 16 13 6 6 6 13 10 13 19 29 23 29 32 23 19 13
0 0 0 0 0 0 0 0 0 0 0 0 0 0 0 3 6 3 0 0 3 3 6 6 6 3 3 6 3 6 13 10 10 13 10 6 6 3 3 3 3 6 10 6 3 6 6 3 3
0 0 0 0 0 0 0 0 0 3 0 0 0 0 0 3 10 6 0 0 3 3 3 3 10 6 6 3 3 10 3 10 10 10 6 3 3 3 3 3 3 3 3 3 3 3 3 3 3
0 0 0 0 0 0 0 0 0 3 0 0 0 0 3 3 6 3 0 3 3 3 3 3 6 3 3 3 3 6 10 13 10 6 6 6 6 3 3 3 3 3 3 3 3 3 3 3 3
0 0 0 0 0 3 3 3 0 3 0 0 0 0 3 3 0 0 0 3 3 3 3 3 3 3 6 10 10 6 6 6 6 6 6 6 6 6 3 3 3 3 3 3 3 3 3 3 3
0 0 0 0 0 0 0 0 0 3 0 0 0 0 0 0 0 0 0 3 3 3 3 3 13 6 6 6 10 6 3 13 13 10 13 13 16 13 10 10 6 6 6 6 10 6 6 3 3
0 0 0 0 0 0 0 0 0 3 0 0 0 0 0 0 0 0 0 3 3 3 3 3 6 10 10 10 6 6 16 16 16 6 6 6 16 13 10 6 6 13 13 6 6 6 3 3 3
0 0 0 0 0 0 0 0 0 3 3 3 3 3 3 0 0 3 3 3 3 3 3 3 6 6 10 6 6 6 10 10 6 10 16 16 19 19 16 16 10 6 10 10 6 6 3 3 3
0 0 0 0 0 0 0 0 0 0 0 0 0 3 3 3 6 3 3 3 3 3 3 3 6 6 3 13 13 10 13 13 16 16 19 16 13 23 13 13 10 10 10 6 6 3 6 3 3
0 0 0 0 0 0 0 0 0 0 0 0 0 0 3 0 3 6 13 6 3 3 6 6 6 6 6 6 6 13 13 13 13 16 16 16 16 13 19 10 13 6 6 6 6 6 3 3 3
0 0 0 0 0 0 0 0 0 0 0 0 0 0 0 0 3 13 10 6 6 3 6 6 6 3 3 6 13 16 16 16 19 16 16 16 16 19 19 16 10 6 6 6 6 6 3 6 3
0 0 0 0 0 0 0 0 0 0 0 3 3 3 3 0 3 13 13 13 6 3 3 3 6 10 6 13 16 16 16 23 16 13 13 16 16 16 19 19 13 6 6 6 6 6 3 3 3
0 0 0 0 0 0 0 0 0 0 0 0 3 3 3 3 6 13 13 10 10 6 3 6 10 10 13 16 19 16 23 16 16 13 16 13 10 13 19 19 13 13 13 13 10 10 3 3 0
0 0 0 0 0 0 0 0 0 0 0 0 0 3 3 6 10 13 13 13 10 3 6 6 13 6 10 16 19 16 19 10 19 19 16 16 13 6 16 19 16 16 16 16 16 6 10 3 0
0 0 0 0 0 0 0 0 0 0 0 0 0 0 3 3 10 16 16 13 10 3 3 6 10 10 13 23 23 13 16 16 23 26 23 23 23 19 16 19 16 16 16 23 16 13 10 10 6
0 0 0 0 0 0 0 0 0 0 0 0 0 0 3 3 10 13 16 13 13 3 3 10 10 13 16 23 32 26 23 26 26 26 19 23 26 23 23 19 16 19 19 16 16 23 16 13 6
0 0 0 0 0 0 0 0 0 0 0 3 3 3 3 6 10 10 13 10 10 3 3 13 13 16 19 29 32 29 23 29 29 29 32 32 29 29 26 26 23 23 19 19 16 23 23 13 10
0 0 0 0 0 0 0 0 0 0 0 0 6 6 6 6 10 13 16 16 16 13 13 10 13 23 26 26 29 32 23 32 39 39 32 35 32 32 26 29 26 19 23 19 13 19 16 16 19
0 0 0 0 0 0 0 0 0 3 3 3 3 6 6 10 6 10 13 16 16 23 19 16 23 26 29 35 35 32 32 32 32 35 32 35 39 32 29 29 23 23 26 19 13 13 16 16 19
0 0 0 0 0 0 0 0 3 10 3 6 6 10 6 6 6 13 16 16 19 19 19 19 32 35 39 32 32 32 32 32 26 29 32 32 32 32 32 26 23 26 26 19 13 13 10 13 13

GEFSSGP_con_cape1000_282.txt.gz
Probability
26 35 26 23 16 3 3 0 0 0 0 0 0 0 0 3 6 10 3 3 6 19 39 52 77 84 87 81 74 74 71 74 65 61 65 58 61 61 58 55 68 65 55 58 55 52 52 58 61
23 23 29 23 3 3 0 0 0 0 0 0 0 0 3 6 3 3 10 10 10 19 42 48 81 90 87 81 77 81 71 68 65 65 68 65 61 55 48 55 61 55 52 55 55 52 52 55 58
26 19 16 6 3 3 0 0 3 0 0 0 3 3 3 0 0 0 13 13 16 35 52 68 81 81 77 77 81 77 77 65 71 71 68 68 61 65 61 55 52 55 55 52 45 45 55 52 55
26 19 6 3 0 3 0 0 0 0 0 0 0 0 3 3 3 6 13 13 16 26 45 68 84 84 81 77 77 74 77 71 71 77 74 71 68 68 65 55 48 58 55 48 39 48 48 45 42
19 6 0 0 0 0 0 0 0 0 0 0 0 0 6 10 6 6 10 10 13 19 32 55 81 81 81 77 77 77 74 74 77 71 74 74 74 71 65 65 58 52 48 45 35 35 39 39 39
6 3 0 0 0 0 0 0 0 0 0 0 0 0 6 13 13 6 10 16 16 26 29 61 74 84 84 81 74 68 65 68 65 61 71 71 77 84 71 65 55 52 48 39 35 32 32 32 35
3 0 0 0 0 0 0 0 0 0 0 0 0 0 6 13 16 13 16 19 16 23 29 48 55 68 77 90 77 68 71 74 68 65 74 74 77 71 58 52 48 48 39 45 39 35 32 35 42
3 0 0 0 0 0 0 0 0 3 0 0 0 0 0 10 13 23 19 23 23 29 29 42 48 42 35 68 71 71 71 71 65 77 65 71 74 68 58 48 52 48 42 45 42 45 35 39 32
3 0 0 0 0 0 0 0 0 0 0 0 0 0 3 6 3 6 10 23 23 23 32 39 39 39 35 35 48 61 77 71 71 65 61 61 58 52 48 32 48 39 35 35 39 39 45 35 39
0 0 0 0 0 0 0 0 0 0 0 0 0 6 6 6 6 3 6 10 16 16 35 48 32 39 35 26 48 58 42 68 61 61 58 65 58 55 26 42 45 35 45 39 35 32 32 32 23
0 0 0 0 0 0 0 3 0 0 0 0 3 6 10 10 6 3 6 6 10 19 29 32 39 48 42 45 48 48 55 68 52 61 58 58 45 39 39 45 48 48 35 39 35 35 29 16 19
0 0 0 0 0 0 0 0 3 0 0 0 0 13 10 16 13 6 6 10 13 16 26 23 39 55 55 52 48 55 52 48 48 61 55 58 52 42 42 39 42 48 55 58 32 35 26 19 19
0 0 0 0 0 0 0 0 0 0 3 0 6 16 10 10 10 16 10 13 16 16 32 35 42 58 71 71 61 48 55 48 55 58 58 61 55 52 48 52 58 39 48 45 52 39 35 35 19
0 0 0 0 0 0 0 0 0 13 6 6 13 13 6 10 13 16 19 16 23 26 32 32 48 52 71 74 71 65 55 68 48 52 55 58 58 61 58 58 55 39 42 42 52 39 45 42 35
0 0 0 0 3 3 3 0 0 13 6 13 19 19 13 6 10 16 19 29 26 26 32 32 39 48 61 58 58 55 52 55 55 61 65 68 61 68 58 52 55 45 35 58 58 48 42 45 29
0 0 0 3 3 6 0 0 3 16 16 19 23 23 23 19 16 19 26 29 29 29 52 42 26 35 48 55 68 52 55 58 58 61 61 71 71 71 58 52 55 52 39 39 68 52 45 45 45
0 0 0 3 3 6 0 0 10 13 19 23 23 26 26 23 23 23 26 23 32 39 48 58 55 42 52 55 58 61 65 68 61 68 68 71 68 68 61 61 58 58 55 45 39 39 48 42 42
0 0 0 0 0 0 0 0 6 16 10 19 26 26 29 29 26 26 26 19 29 39 58 68 74 74 65 65 65 61 58 58 55 61 74 74 65 61 55 61 61 55 55 61 61 61 55 42 42
0 0 0 0 0 0 0 0 10 16 13 13 19 26 29 26 26 29 32 26 29 32 61 74 68 77 74 65 65 61 55 55 52 55 58 68 61 52 55 58 65 65 55 58 48 48 45 45 35
0 0 0 0 0 0 3 3 3 13 13 19 23 23 23 26 23 39 35 29 29 35 55 74 74 74 68 71 68 68 68 58 55 52 55 55 55 52 42 61 61 58 55 58 52 55 45 35 29
0 0 0 0 0 3 3 0 3 10 16 16 23 26 23 19 26 35 39 39 29 42 55 58 74 71 71 68 68 65 68 61 58 58 61 61 58 52 58 58 55 52 52 48 52 55 52 45 39
0 0 0 0 0 3 3 0 6 13 13 19 19 23 26 23 26 39 42 42 45 45 48 68 71 74 71 68 68 65 65 55 55 61 61 61 55 58 52 52 48 52 52 52 52 48 48 52 42
0 0 0 0 0 3 3 0 0 10 13 13 16 13 26 29 29 35 32 42 45 45 42 55 74 68 68 68 65 68 61 61 61 61 65 65 52 55 52 52 55 58 52 52 52 52 52 52 52
0 0 3 0 0 3 3 3 0 0 16 13 10 16 23 29 32 32 32 42 45 42 39 48 68 71 71 68 61 65 65 61 61 61 61 61 52 52 52 52 52 55 52 52 52 45 48 45 45
0 0 3 0 0 0 0 3 0 0 0 0 6 13 19 29 35 32 32 48 48 55 42 48 61 71 71 65 71 68 68 68 68 68 58 55 48 48 52 48 55 55 55 55 52 48 45 45 42
0 0 0 0 0 0 3 3 0 0 3 6 10 23 19 29 35 39 35 42 45 52 52 55 58 65 71 68 71 68 71 65 58 65 61 55 52 52 52 52 52 52 52 45 45 42 42 42 42
3 0 0 0 0 0 0 0 0 10 13 10 13 26 29 26 42 42 39 35 42 52 52 48 58 61 65 68 71 74 65 61 61 65 58 55 52 52 48 48 52 52 52 45 45 42 42 48 48
0 0 0 0 0 0 0 0 0 13 16 16 29 29 39 39 32 39 39 45 42 45 52 48 55 58 55 65 71 58 65 65 61 58 55 48 48 48 48 48 48 48 48 48 45 42 42 45 42
0 0 0 0 0 0 0 0 6 10 16 29 23 35 35 35 35 32 35 52 45 45 48 48 52 58 61 65 65 61 61 61 58 55 55 52 48 48 48 48 45 45 42 42 42 39 39 35 35
0 0 0 0 0 0 0 0 6 6 16 32 42 45 39 39 35 39 45 52 48 48 42 48 55 58 61 65 61 58 55 55 55 52 52 52 52 45 45 45 45 45 39 42 39 39 39 35 32

GEFSSGP_con_cape1000_288.txt.gz
Probability
10 19 32 55 65 16 3 0 0 0 0 3 6 6 6 6 6 10 13 23 29 26 48 61 77 74 74 77 71 71 74 81 71 68 68 48 52 52 55 52 58 58 58 52 48 52 55 55 61
10 29 39 58 19 6 0 0 0 0 0 3 3 0 3 6 10 10 16 29 32 35 45 52 81 71 74 77 77 74 71 65 68 65 68 58 55 45 52 52 58 58 52 52 52 45 52 55 58
19 35 42 35 10 3 0 0 0 0 3 3 3 3 0 6 10 19 19 26 23 23 32 77 81 77 71 74 77 71 68 68 58 58 55 58 45 52 45 48 52 45 48 48 42 42 45 45 45
39 39 39 10 6 3 0 0 0 0 0 0 3 3 3 3 13 10 19 13 23 26 32 68 81 77 71 71 74 74 61 55 61 58 55 58 55 58 52 58 48 42 48 45 39 42 42 45 42
45 42 13 3 0 0 3 0 3 0 0 3 3 6 6 10 10 10 16 23 23 29 32 55 77 77 71 68 71 61 61 61 61 55 52 52 61 58 52 52 42 39 48 45 35 39 32 35 35
32 26 6 3 0 0 3 0 0 0 0 0 3 6 6 10 13 10 13 19 19 29 35 61 81 71 74 71 71 58 55 55 45 42 52 61 52 58 48 45 39 35 35 32 32 35 35 29 35
23 10 3 0 3 3 3 0 0 0 0 0 0 3 6 6 10 13 19 19 19 26 42 39 52 68 71 71 65 61 55 52 52 45 48 61 52 45 48 48 35 32 39 32 29 23 29 32 45
13 3 3 0 0 0 0 3 0 0 0 0 0 3 6 6 10 16 19 23 35 42 39 42 42 52 55 61 65 65 58 55 55 55 55 52 55 55 52 48 48 35 39 42 39 35 39 35 42
0 0 0 0 0 0 0 0 0 0 0 3 3 6 6 3 6 13 19 23 32 32 42 29 19 29 42 35 42 65 61 58 58 55 55 65 55 42 45 45 55 48 42 42 39 42 48 45 39
0 3 0 0 0 0 0 0 0 0 3 6 3 6 3 3 6 6 16 23 29 32 35 39 26 29 26 26 42 61 52 68 68 71 71 68 71 58 35 52 58 39 35 35 45 42 42 35 26
0 0 0 0 0 0 0 0 3 3 3 3 6 3 3 3 10 13 13 19 26 23 32 32 39 55 45 52 61 74 71 77 65 68 71 71 61 52 48 42 48 48 42 39 42 39 32 19 23
0 0 0 0 0 0 0 0 0 0 0 0 10 3 3 6 10 10 13 13 19 26 32 35 42 58 71 71 65 65 65 81 65 77 65 71 71 65 71 68 55 71 55 58 45 45 39 35 29
0 0 0 0 0 0 0 0 0 0 0 3 10 6 3 3 10 10 16 23 19 32 39 48 68 81 84 87 87 65 81 65 77 81 71 71 71 68 68 65 68 61 61 65 61 58 52 42 32
0 0 0 0 0 0 0 0 0 0 0 0 6 10 3 6 6 13 16 23 29 35 42 52 58 77 84 87 87 84 68 84 74 74 81 71 68 71 65 71 74 71 77 71 68 55 55 48 42
0 0 0 0 0 0 0 0 0 0 0 3 3 6 6 6 10 16 16 29 29 42 48 55 65 74 84 84 87 81 81 71 74 77 74 77 65 68 68 65 68 61 68 68 71 65 58 55 35
0 0 0 0 0 0 0 0 0 0 0 3 10 10 10 13 13 19 23 32 35 39 61 58 35 58 77 90 84 84 81 84 81 84 77 77 77 74 74 74 65 65 61 65 68 68 61 55 45
0 0 0 0 0 0 0 0 0 3 3 10 13 10 6 10 16 26 23 23 35 61 71 71 74 65 81 81 84 84 87 87 84 81 74 74 71 71 74 74 74 77 71 71 58 65 58 55 45
0 0 0 0 0 0 0 0 3 6 3 10 13 16 13 13 16 29 26 23 39 65 71 77 81 81 87 87 87 87 87 84 77 81 84 84 68 65 68 71 71 68 68 68 71 68 65 61 52
0 0 0 0 0 0 0 0 0 6 3 10 13 16 16 13 16 26 26 26 42 68 71 81 81 81 84 84 81 84 81 84 77 81 81 77 71 65 68 65 71 74 68 65 61 65 52 55 55
0 0 0 0 0 0 0 0 0 6 0 10 19 19 23 32 26 29 29 26 39 65 71 81 81 81 77 81 87 87 84 77 77 74 84 74 68 65 55 74 71 71 74 58 55 61 58 48 52
0 0 0 0 0 0 0 0 0 6 10 3 16 26 19 26 29 32 32 32 35 52 68 74 81 84 81 84 81 77 84 77 74 74 81 71 68 68 71 71 71 71 65 55 58 58 58 52 55
0 0 0 0 0 0 0 0 10 6 10 6 10 13 23 23 32 39 32 42 42 52 55 81 84 84 81 77 77 77 77 74 68 71 74 74 65 65 55 71 71 68 65 61 52 58 58 52 52
0 0 0 0 0 0 0 0 3 10 6 10 16 13 16 19 26 39 35 45 39 42 55 71 84 81 81 81 77 77 74 71 71 68 74 74 65 61 58 58 61 61 61 58 58 55 52 55 55
0 0 0 0 0 0 0 0 6 3 13 10 13 13 19 19 26 39 35 45 42 32 52 68 81 81 81 81 81 77 74 77 71 74 71 68 61 61 58 52 58 61 61 61 61 58 52 55 52
0 0 0 0 0 0 0 0 6 10 13 13 10 10 19 26 32 29 32 42 48 48 52 74 81 81 81 81 77 77 74 74 74 71 71 65 58 58 55 52 58 58 61 58 61 55 48 55 52
0 0 0 0 0 0 0 0 6 10 10 13 19 16 13 19 32 32 32 35 52 55 65 74 81 81 81 77 77 74 77 74 74 71 65 65 58 55 55 55 55 55 55 55 61 58 52 52 48
0 0 0 0 0 0 0 3 6 10 3 16 19 13 16 23 29 29 32 45 52 61 68 68 81 77 74 74 74 77 74 74 68 68 65 58 61 52 48 48 55 52 52 52 58 55 55 52 48
0 0 3 0 0 0 0 0 10 10 6 10 19 23 26 32 42 42 42 52 52 61 68 58 71 71 71 77 77 68 71 68 68 68 61 61 55 52 48 48 48 48 48 55 52 52 55 48 45
0 0 3 0 0 0 0 6 6 19 19 19 29 29 39 35 32 35 48 48 45 45 55 58 74 74 77 74 77 74 71 71 68 68 61 58 58 55 52 52 48 52 55 55 55 52 52 48 48
3 0 0 0 10 6 0 6 6 13 23 26 32 39 42 39 39 39 42 42 29 45 48 61 65 71 71 74 71 68 68 68 65 61 55 58 58 61 55 55 55 55 52 48 45 39 42 42 42

GEFSSGP_con_cape1000_294.txt.gz
Probability
29 13 3 16 6 3 0 0 3 3 0 0 6 3 0 6 3 3 6 10 13 19 45 74 81 81 84 77 81 81 81 77 71 65 68 68 74 61 65 61 65 65 65 55 55 55 58 42 48
10 10 19 10 0 0 0 0 0 3 0 0 0 0 3 6 6 6 6 10 16 19 35 55 71 77 84 77 84 81 74 74 74 68 61 68 68 71 68 68 65 61 68 58 55 55 52 48 42
13 19 19 3 0 0 0 0 0 3 0 0 0 3 6 10 10 6 10 13 16 19 39 65 74 77 81 81 81 77 74 71 81 81 58 55 58 55 61 71 71 68 61 61 58 55 52 55 45
13 16 6 0 0 0 0 3 3 0 0 0 0 0 0 6 10 10 10 19 19 23 39 55 81 81 81 84 84 74 71 71 77 74 71 68 58 55 58 65 68 68 58 55 55 52 42 42 39
16 6 6 0 0 0 3 3 3 0 3 0 0 3 3 10 6 10 10 16 13 23 32 61 77 77 84 77 77 71 74 74 74 74 68 71 71 65 58 61 68 61 58 48 39 39 35 45 32
16 6 0 0 0 0 0 0 0 0 0 3 3 3 0 0 6 10 16 13 13 19 42 55 81 74 71 74 71 71 71 68 68 61 58 58 55 65 68 65 58 65 55 42 42 42 39 35 35
10 6 0 0 0 0 3 3 3 3 6 6 3 3 0 0 3 6 13 13 16 29 39 45 48 58 71 65 71 71 74 71 65 65 58 58 52 61 61 65 58 42 39 39 39 35 26 26 35
3 0 0 0 0 0 3 3 6 3 6 6 6 6 0 0 3 6 10 6 16 26 26 29 39 42 39 55 65 65 71 68 65 65 61 52 48 55 58 61 55 42 42 35 32 35 29 32 52
3 0 0 0 0 0 3 0 6 6 6 6 6 6 3 3 3 0 3 6 6 16 19 23 29 26 19 23 45 58 52 55 48 52 61 52 29 26 35 42 52 48 45 42 32 35 39 42 42
0 0 0 0 0 0 3 3 3 3 6 3 3 3 3 3 0 0 3 6 6 6 16 19 26 23 23 19 23 23 29 35 26 29 42 32 23 19 32 45 58 52 45 45 45 52 45 32 16
0 0 0 0 0 0 0 0 0 0 3 3 3 3 3 3 0 0 6 6 6 6 13 16 19 19 19 13 10 13 19 13 16 19 16 13 6 13 23 13 39 29 32 23 23 39 29 16 10
0 0 0 0 0 0 0 0 0 0 3 3 3 3 3 3 3 3 3 3 6 10 13 16 6 10 16 10 13 10 6 13 16 6 13 10 13 10 10 6 13 13 13 13 13 16 13 13 10
0 0 0 0 0 0 0 0 0 0 3 3 3 3 3 3 3 3 3 10 10 13 16 16 13 10 6 6 6 10 13 16 10 3 10 13 19 10 6 6 13 13 13 13 10 10 6 10 6
0 0 0 0 0 0 0 0 0 0 3 3 3 3 3 3 3 3 3 6 10 10 19 16 13 13 3 6 10 6 16 10 10 13 10 10 16 16 10 10 10 10 10 10 10 10 3 3 3
0 0 0 0 0 0 0 0 0 0 3 3 3 3 3 3 3 3 6 13 10 13 10 10 13 10 6 6 10 16 16 16 13 10 10 13 13 13 10 10 13 10 6 6 3 6 6 6 3
0 0 0 0 0 0 0 0 0 0 3 3 3 3 6 6 3 10 10 13 10 13 16 13 10 13 10 10 10 10 10 10 6 6 10 16 6 6 3 10 13 13 3 3 6 6 6 6 3
0 0 0 0 0 0 0 0 0 0 3 3 6 6 6 6 13 10 10 13 10 10 13 16 10 16 16 16 16 10 13 10 3 6 16 19 13 10 6 10 13 10 6 10 10 10 3 6 6
0 0 0 0 0 0 0 0 0 0 3 3 6 6 6 10 13 10 10 10 16 13 16 19 13 16 16 19 16 16 13 16 13 16 13 23 26 23 16 13 10 13 10 10 10 6 6 10 6
0 0 0 0 0 0 0 0 0 0 0 3 3 6 6 13 13 10 13 13 13 19 19 23 19 23 19 16 23 23 23 16 19 23 23 29 19 19 23 19 10 16 13 10 6 6 6 6 6
0 0 0 0 0 0 0 0 0 0 0 0 0 6 10 13 10 13 13 16 16 23 16 19 19 29 26 26 19 23 19 26 26 26 16 19 29 26 29 23 19 13 13 6 6 6 6 6 6
0 0 0 0 0 0 0 0 0 0 0 0 3 6 16 16 10 10 13 16 23 23 26 23 26 29 35 35 26 35 29 35 26 19 13 16 32 29 29 26 19 13 10 10 10 6 6 6 3
0 0 0 0 0 0 0 0 0 0 0 0 3 10 13 13 16 10 10 16 16 16 29 29 29 39 42 32 29 32 32 32 26 29 23 26 26 32 35 29 29 23 16 13 13 10 10 10 6
0 0 0 0 0 0 0 0 0 0 0 0 3 3 10 13 16 13 13 16 16 19 29 29 35 39 39 35 32 26 29 29 23 26 29 29 26 26 29 32 29 29 19 19 16 19 16 16 10
0 0 0 0 0 0 0 0 0 0 0 0 0 0 6 6 13 10 13 10 19 26 29 39 39 48 52 45 35 32 32 32 29 32 32 26 26 26 26 26 26 29 26 23 19 26 19 19 16
0 0 0 0 0 0 0 0 3 0 0 0 0 6 10 10 13 16 16 16 23 32 35 42 42 45 48 45 39 35 35 29 29 32 32 35 35 35 26 26 29 29 29 29 29 26 26 23 16
0 0 0 0 0 0 0 0 0 0 0 6 6 6 10 10 10 13 19 19 26 32 39 45 42 45 42 39 39 42 39 35 35 35 35 35 35 35 32 26 35 32 26 32 29 32 26 23 23
0 0 0 0 0 0 0 0 0 6 3 6 6 6 6 10 16 19 16 19 23 29 29 42 48 42 42 45 45 42 42 45 39 35 42 35 32 32 35 39 39 32 32 35 29 26 26 23 26
0 0 0 0 0 0 0 3 3 3 6 10 10 10 10 10 16 16 19 19 19 23 26 39 45 48 42 45 45 42 45 48 45 42 39 35 32 39 35 35 39 42 39 32 32 29 29 29 19
0 0 0 0 0 0 0 3 3 10 10 13 13 13 16 16 19 16 26 23 26 26 26 32 48 45 45 55 52 52 48 45 48 42 42 39 39 39 39 42 45 42 32 26 26 23 23 16 19
0 0 0 0 0 0 0 3 6 6 10 10 13 13 19 23 19 23 23 26 26 26 26 35 39 45 52 52 48 48 42 39 42 45 45 42 39 42 42 42 39 29 16 16 13 13 13 13 6